User: anonymous   Login
Location: *
(40.7765°S, 106.5327°E)
Time: 08:59:02
(UTC+00:00)
Language:

Cosmos 1153 Rocket - Orbit

View from above orbital plane
View from above orbital plane
View from above satellite
View from above satellite

Ground track
Ground track

The orbit data is extracted from the following two-line orbital elements,

1 11681U 80007B   22222.11996961  .00000072  00000-0  58693-4 0  9998
2 11681  82.9298  98.5072 0037004 140.5742  23.1803 13.75491064130792
Epoch (UTC): 10 August 2022 02:52:45
Eccentricity: 0.0037004
inclination: 82.9298°
perigee height: 952 km
apogee height: 1007 km
right ascension of ascending node: 98.5072°
argument of perigee: 140.5742°
revolutions per day: 13.75491064
mean anomaly at epoch: 23.1803°
orbit number at epoch: 13079

The dashed part of the orbit path shows where the satellite is in the earth's shadow,  

DLR